Location: Olmeneta
(45.2333°N, 10.0167°E)
Time: 13:43:33
(UTC+00:00)

CZ-2C R/B - Pass Details

Date: 03 March 2021
Orbit: 784 x 871 km, 98.2° (Epoch: 11 April)

Event Time Altitude Azimuth Distance (km) Brightness Sun altitude
Rises 18:00:44 0° 18° (NNE) 3,429 5.7 -9.7°
Reaches altitude 10° 18:03:14 10° 24° (NNE) 2,477 4.9 -10.2°
Maximum altitude 18:08:32 48° 98° (E) 1,084 2.9 -11.1°
Drops below altitude 10° 18:13:40 10° 172° (S) 2,403 5.0 -12.0°
Sets 18:16:04 0° 178° (S) 3,318 5.7 -12.4°
